Location: Bogis-Bossey
(46.3500°N, 6.1667°E)
Time: 17:30:43
(UTC+00:00)

NOSS 2-3 (E) - Pass Details

Date: 17 August 2022
Orbit: 529 x 1680 km, 63.3° (Epoch: 23 September)

Event Time Altitude Azimuth Distance (km) Brightness Sun altitude
Rises 19:07:01 0° 216° (SW) 2,655 7.0 -4.9°
Reaches altitude 10° 19:09:05 10° 215° (SW) 1,782 6.1 -5.2°
Maximum altitude 19:12:57 84° 129° (SE) 578 3.4 -5.8°
Drops below altitude 10° 19:17:27 10° 40° (NE) 2,061 6.1 -6.5°
Sets 19:20:00 0° 40° (NE) 3,118 7.0 -6.9°
